Year,Month,Day,Hour,Minute,Value (Times are PST for temperature in C)
2016,08,26,08,36,19.40
2016,08,26,08,37,19.50
2016,08,26,08,38,19.50
2016,08,26,08,39,19.60
2016,08,26,08,40,19.60
2016,08,26,08,41,19.60
2016,08,26,08,42,19.70
2016,08,26,08,43,19.80
2016,08,26,08,44,19.80
2016,08,26,08,45,19.90
2016,08,26,08,46,19.90
2016,08,26,08,47,20.00
2016,08,26,08,48,20.10
2016,08,26,08,49,20.10
2016,08,26,08,50,20.20
2016,08,26,08,51,20.20
2016,08,26,08,52,20.30
2016,08,26,08,53,20.40
2016,08,26,08,54,20.50
2016,08,26,08,55,20.50
2016,08,26,08,56,20.60
2016,08,26,08,57,20.70
2016,08,26,08,58,20.80
2016,08,26,08,59,20.90
2016,08,26,09,00,21.00
2016,08,26,09,01,21.00
2016,08,26,09,02,21.10
2016,08,26,09,03,21.20
2016,08,26,09,04,21.20
2016,08,26,09,05,21.30
2016,08,26,09,06,21.30
2016,08,26,09,07,21.30
2016,08,26,09,08,21.40
2016,08,26,09,09,21.50
2016,08,26,09,10,21.60
2016,08,26,09,11,21.60
2016,08,26,09,12,21.60
2016,08,26,09,13,21.70
2016,08,26,09,14,21.80
2016,08,26,09,15,21.80
2016,08,26,09,16,21.90
2016,08,26,09,17,21.90
2016,08,26,09,18,22.00
2016,08,26,09,19,22.10
2016,08,26,09,20,22.10
2016,08,26,09,21,22.20
2016,08,26,09,22,22.30
2016,08,26,09,23,22.40
2016,08,26,09,24,22.40
2016,08,26,09,25,22.40
2016,08,26,09,26,22.30
2016,08,26,09,27,22.30
2016,08,26,09,28,22.30
2016,08,26,09,29,22.30
2016,08,26,09,30,22.30
2016,08,26,09,31,22.30
2016,08,26,09,32,22.20
2016,08,26,09,33,22.20
2016,08,26,09,34,22.20
2016,08,26,09,35,22.20
2016,08,26,09,36,22.20
2016,08,26,09,37,22.30
2016,08,26,09,38,22.40
2016,08,26,09,39,22.40
2016,08,26,09,40,22.50
2016,08,26,09,41,22.60
2016,08,26,09,42,22.60
2016,08,26,09,43,22.70
2016,08,26,09,44,22.70
2016,08,26,09,45,22.80
2016,08,26,09,46,22.80
2016,08,26,09,47,22.90
2016,08,26,09,48,22.90
2016,08,26,09,49,23.00
2016,08,26,09,50,23.10
2016,08,26,09,51,23.20
2016,08,26,09,52,23.20
2016,08,26,09,53,23.30
2016,08,26,09,54,23.30
2016,08,26,09,55,23.30
2016,08,26,09,56,23.30
2016,08,26,09,57,23.40
2016,08,26,09,58,23.40
2016,08,26,09,59,23.50
2016,08,26,10,00,23.60
2016,08,26,10,01,23.70
2016,08,26,10,02,23.70
2016,08,26,10,03,23.80
2016,08,26,10,04,24.00
2016,08,26,10,05,24.10
2016,08,26,10,06,24.20
2016,08,26,10,07,24.30
2016,08,26,10,08,24.40
2016,08,26,10,09,24.50
2016,08,26,10,10,24.50
2016,08,26,10,11,24.60
2016,08,26,10,12,24.70
2016,08,26,10,13,24.80
2016,08,26,10,14,24.80
2016,08,26,10,15,24.90
2016,08,26,10,16,25.00
2016,08,26,10,17,25.00
2016,08,26,10,18,25.10
2016,08,26,10,19,25.20
2016,08,26,10,20,25.20
2016,08,26,10,21,25.20
2016,08,26,10,22,25.30
2016,08,26,10,23,25.30
2016,08,26,10,24,25.30
2016,08,26,10,25,25.30
2016,08,26,10,26,25.30
2016,08,26,10,27,25.20
2016,08,26,10,28,25.10
2016,08,26,10,29,25.00
2016,08,26,10,30,24.90
2016,08,26,10,31,24.80
2016,08,26,10,32,24.80
2016,08,26,10,33,24.90
2016,08,26,10,34,24.90
2016,08,26,10,35,24.90
2016,08,26,10,36,24.90
2016,08,26,10,37,24.90
2016,08,26,10,38,24.90
2016,08,26,10,39,24.90
2016,08,26,10,40,24.90
2016,08,26,10,41,24.90
2016,08,26,10,42,24.90
2016,08,26,10,43,24.90
2016,08,26,10,44,24.90
2016,08,26,10,45,24.90
2016,08,26,10,46,24.90
2016,08,26,10,47,24.90
2016,08,26,10,48,24.90
2016,08,26,10,49,24.90
2016,08,26,10,50,24.90
2016,08,26,10,51,24.90
2016,08,26,10,52,24.90
2016,08,26,10,53,24.90
2016,08,26,10,54,25.00
2016,08,26,10,55,25.00
2016,08,26,10,56,25.10
2016,08,26,10,57,25.10
2016,08,26,10,58,25.10
2016,08,26,10,59,25.10
2016,08,26,11,00,25.00
2016,08,26,11,01,24.90
2016,08,26,11,02,24.80
2016,08,26,11,03,24.60
2016,08,26,11,04,24.50
2016,08,26,11,05,24.40
2016,08,26,11,06,24.40
2016,08,26,11,07,24.40
2016,08,26,11,08,24.50
2016,08,26,11,09,24.50
2016,08,26,11,10,24.50
2016,08,26,11,11,24.40
2016,08,26,11,12,24.40
2016,08,26,11,13,24.40
2016,08,26,11,14,24.40
2016,08,26,11,15,24.30
2016,08,26,11,16,24.30
2016,08,26,11,17,24.40
2016,08,26,11,18,24.50
2016,08,26,11,19,24.60
2016,08,26,11,20,24.70
2016,08,26,11,21,24.80
2016,08,26,11,22,24.80
2016,08,26,11,23,24.80
2016,08,26,11,24,24.80
2016,08,26,11,25,24.80
2016,08,26,11,26,24.80
2016,08,26,11,27,24.80
2016,08,26,11,28,24.70
2016,08,26,11,29,24.60
2016,08,26,11,30,24.50
2016,08,26,11,31,24.50
2016,08,26,11,32,24.60
2016,08,26,11,33,24.70
2016,08,26,11,34,24.80
2016,08,26,11,35,24.90
2016,08,26,11,36,25.20
2016,08,26,11,37,25.30
2016,08,26,11,38,25.30
2016,08,26,11,39,25.40
2016,08,26,11,40,25.40
2016,08,26,11,41,25.50
2016,08,26,11,42,25.60
2016,08,26,11,43,25.60
2016,08,26,11,44,25.70
2016,08,26,11,45,25.70
2016,08,26,11,46,25.60
2016,08,26,11,47,25.60
2016,08,26,11,48,25.60
2016,08,26,11,49,25.70
2016,08,26,11,50,25.80
2016,08,26,11,51,25.90
2016,08,26,11,52,26.00
2016,08,26,11,53,26.00
2016,08,26,11,54,26.10
2016,08,26,11,55,26.20
2016,08,26,11,56,26.30
2016,08,26,11,57,26.30
2016,08,26,11,58,26.40
2016,08,26,11,59,26.40
2016,08,26,12,00,26.40
2016,08,26,12,01,26.40
2016,08,26,12,02,26.40
2016,08,26,12,03,26.40
2016,08,26,12,04,26.40
2016,08,26,12,05,26.40
2016,08,26,12,06,26.40
2016,08,26,12,07,26.40
2016,08,26,12,08,26.60
2016,08,26,12,09,26.60
2016,08,26,12,10,26.70
2016,08,26,12,11,26.70
2016,08,26,12,12,26.70
2016,08,26,12,13,26.80
2016,08,26,12,14,26.80
2016,08,26,12,15,26.80
2016,08,26,12,16,26.80
2016,08,26,12,17,26.70
2016,08,26,12,18,26.60
2016,08,26,12,19,26.60
2016,08,26,12,20,26.60
2016,08,26,12,21,26.60
2016,08,26,12,22,26.60
2016,08,26,12,23,26.60
2016,08,26,12,24,26.70
2016,08,26,12,25,26.80
2016,08,26,12,26,26.80
2016,08,26,12,27,26.80
2016,08,26,12,28,26.80
2016,08,26,12,29,26.70
2016,08,26,12,30,26.70
2016,08,26,12,31,26.60
2016,08,26,12,32,26.60
2016,08,26,12,33,26.60
2016,08,26,12,34,26.70
2016,08,26,12,35,26.70
2016,08,26,12,36,26.70
2016,08,26,12,37,26.70
2016,08,26,12,38,26.60
2016,08,26,12,39,26.70
2016,08,26,12,40,26.70
2016,08,26,12,41,26.60
2016,08,26,12,42,26.60
2016,08,26,12,43,26.60
2016,08,26,12,44,26.60
2016,08,26,12,45,26.60
2016,08,26,12,46,26.50
2016,08,26,12,47,26.50
2016,08,26,12,48,26.50
2016,08,26,12,49,26.50
2016,08,26,12,50,26.60
2016,08,26,12,51,26.60
2016,08,26,12,52,26.60
2016,08,26,12,53,26.60
2016,08,26,12,54,26.60
2016,08,26,12,55,26.60
2016,08,26,12,56,26.60
2016,08,26,12,57,26.70
2016,08,26,12,58,26.80
2016,08,26,12,59,26.80
2016,08,26,13,00,26.80
2016,08,26,13,01,26.80
2016,08,26,13,02,26.90
2016,08,26,13,03,26.90
2016,08,26,13,04,26.90
2016,08,26,13,05,26.80
2016,08,26,13,06,26.80
2016,08,26,13,07,26.70
2016,08,26,13,08,26.60
2016,08,26,13,09,26.60
2016,08,26,13,10,26.60
2016,08,26,13,11,26.50
2016,08,26,13,12,26.40
2016,08,26,13,13,26.20
2016,08,26,13,14,26.10
2016,08,26,13,15,26.10
2016,08,26,13,16,26.00
2016,08,26,13,17,25.90
2016,08,26,13,18,25.90
2016,08,26,13,19,26.00
2016,08,26,13,20,26.10
2016,08,26,13,21,26.20
2016,08,26,13,22,26.40
2016,08,26,13,23,26.40
2016,08,26,13,24,26.40
2016,08,26,13,25,26.40
2016,08,26,13,26,26.30
2016,08,26,13,27,26.20
2016,08,26,13,28,26.20
2016,08,26,13,29,26.20
2016,08,26,13,30,26.20
2016,08,26,13,31,26.20
2016,08,26,13,32,26.20
2016,08,26,13,33,26.20
2016,08,26,13,34,26.10
2016,08,26,13,35,26.10
2016,08,26,13,36,26.00
2016,08,26,13,37,25.90
2016,08,26,13,38,25.90
2016,08,26,13,39,25.90
2016,08,26,13,40,25.90
2016,08,26,13,41,25.90
2016,08,26,13,42,25.80
2016,08,26,13,43,25.80
2016,08,26,13,44,25.70
2016,08,26,13,45,25.70
2016,08,26,13,46,25.60
2016,08,26,13,47,25.60
2016,08,26,13,48,25.40
2016,08,26,13,49,25.30
2016,08,26,13,50,25.30
2016,08,26,13,51,25.30
2016,08,26,13,52,25.30
2016,08,26,13,53,25.40
2016,08,26,13,54,25.30
2016,08,26,13,55,25.20
2016,08,26,13,56,25.00
2016,08,26,13,57,24.90
2016,08,26,13,58,24.90
2016,08,26,13,59,24.90
2016,08,26,14,00,25.00
2016,08,26,14,01,25.10
2016,08,26,14,02,25.10
2016,08,26,14,03,25.10
2016,08,26,14,04,25.20
2016,08,26,14,05,25.30
2016,08,26,14,06,25.40
2016,08,26,14,07,25.40
2016,08,26,14,08,25.40
2016,08,26,14,09,25.30
2016,08,26,14,10,25.20
2016,08,26,14,11,25.10
2016,08,26,14,12,25.10
2016,08,26,14,13,25.20
2016,08,26,14,14,25.10
2016,08,26,14,15,25.20
2016,08,26,14,16,25.20
2016,08,26,14,17,25.20
2016,08,26,14,18,25.20
2016,08,26,14,19,25.10
2016,08,26,14,20,25.00
2016,08,26,14,21,25.00
2016,08,26,14,22,25.10
2016,08,26,14,23,25.10
2016,08,26,14,24,25.20
2016,08,26,14,25,25.30
2016,08,26,14,26,25.30
2016,08,26,14,27,25.40
2016,08,26,14,28,25.50
2016,08,26,14,29,25.50
2016,08,26,14,30,25.60
2016,08,26,14,31,25.70
2016,08,26,14,32,25.80
2016,08,26,14,33,25.90
2016,08,26,14,34,25.90
2016,08,26,14,35,26.00
2016,08,26,14,36,26.00
2016,08,26,14,37,26.10
2016,08,26,14,38,26.20
2016,08,26,14,39,26.20
2016,08,26,14,40,26.20
2016,08,26,14,41,26.20
2016,08,26,14,42,26.20
2016,08,26,14,43,26.30
2016,08,26,14,44,26.30
2016,08,26,14,45,26.30
2016,08,26,14,46,26.30
2016,08,26,14,47,26.30
2016,08,26,14,48,26.30
2016,08,26,14,49,26.20
2016,08,26,14,50,26.10
2016,08,26,14,51,25.90
2016,08,26,14,52,25.90
2016,08,26,14,53,25.80
2016,08,26,14,54,25.80
2016,08,26,14,55,25.80
2016,08,26,14,56,25.70
2016,08,26,14,57,25.70
2016,08,26,14,58,25.60
2016,08,26,14,59,25.60
2016,08,26,15,00,25.50
2016,08,26,15,01,25.60
2016,08,26,15,02,25.70
2016,08,26,15,03,25.90
2016,08,26,15,04,26.00
2016,08,26,15,05,26.00
2016,08,26,15,06,26.10
2016,08,26,15,07,26.30
2016,08,26,15,08,26.30
2016,08,26,15,09,26.30
2016,08,26,15,10,26.20
2016,08,26,15,11,26.00
2016,08,26,15,12,25.90
2016,08,26,15,13,25.80
2016,08,26,15,14,25.70
2016,08,26,15,15,25.80
2016,08,26,15,16,25.90
2016,08,26,15,17,26.00
2016,08,26,15,18,26.10
2016,08,26,15,19,26.20
2016,08,26,15,20,26.30
2016,08,26,15,21,26.30
2016,08,26,15,22,26.20
2016,08,26,15,23,26.10
2016,08,26,15,24,26.00
2016,08,26,15,25,26.00
2016,08,26,15,26,26.00
2016,08,26,15,27,26.10
2016,08,26,15,28,26.20
2016,08,26,15,29,26.20
2016,08,26,15,30,26.30
2016,08,26,15,31,26.50
2016,08,26,15,32,26.60
2016,08,26,15,33,26.80
2016,08,26,15,34,26.90
2016,08,26,15,35,26.90
2016,08,26,15,36,26.90
2016,08,26,15,37,26.90
2016,08,26,15,38,26.90
2016,08,26,15,39,26.80
2016,08,26,15,40,26.70
2016,08,26,15,41,26.60
2016,08,26,15,42,26.60
2016,08,26,15,43,26.60
2016,08,26,15,44,26.60
2016,08,26,15,45,26.60
2016,08,26,15,46,26.60
2016,08,26,15,47,26.60
2016,08,26,15,48,26.80
2016,08,26,15,49,26.90
2016,08,26,15,50,26.90
2016,08,26,15,51,26.90
2016,08,26,15,52,26.80
2016,08,26,15,53,26.70
2016,08,26,15,54,26.60
2016,08,26,15,55,26.60
2016,08,26,15,56,26.60
2016,08,26,15,57,26.60
2016,08,26,15,58,26.70
2016,08,26,15,59,26.70
2016,08,26,16,00,26.80
2016,08,26,16,01,26.80
2016,08,26,16,02,26.90
2016,08,26,16,03,26.90
2016,08,26,16,04,27.00
2016,08,26,16,05,27.10
2016,08,26,16,06,27.00
2016,08,26,16,07,26.90
2016,08,26,16,08,26.90
2016,08,26,16,09,26.80
2016,08,26,16,10,26.80
2016,08,26,16,11,26.70
2016,08,26,16,12,26.60
2016,08,26,16,13,26.60
2016,08,26,16,14,26.60
2016,08,26,16,15,26.60
2016,08,26,16,16,26.60
2016,08,26,16,17,26.60
2016,08,26,16,18,26.60
2016,08,26,16,19,26.60
2016,08,26,16,20,26.60
2016,08,26,16,21,26.60
2016,08,26,16,22,26.60
2016,08,26,16,23,26.60
2016,08,26,16,24,26.60
2016,08,26,16,25,26.60
2016,08,26,16,26,26.60
2016,08,26,16,27,26.60
2016,08,26,16,28,26.60
2016,08,26,16,29,26.60
2016,08,26,16,30,26.60
2016,08,26,16,31,26.60
2016,08,26,16,32,26.60
2016,08,26,16,33,26.60
2016,08,26,16,34,26.50
2016,08,26,16,35,26.40
2016,08,26,16,36,26.30
2016,08,26,16,37,26.20
2016,08,26,16,38,26.10
2016,08,26,16,39,25.90
2016,08,26,16,40,25.60
2016,08,26,16,41,25.40
2016,08,26,16,42,25.30
2016,08,26,16,43,25.10
2016,08,26,16,44,24.90
2016,08,26,16,45,24.80
2016,08,26,16,46,24.60
2016,08,26,16,47,24.50
2016,08,26,16,48,24.40
2016,08,26,16,49,24.30
2016,08,26,16,50,24.20
2016,08,26,16,51,24.10
2016,08,26,16,52,24.00
2016,08,26,16,53,23.90
2016,08,26,16,54,23.70
2016,08,26,16,55,23.50
2016,08,26,16,56,23.40
2016,08,26,16,57,23.30
2016,08,26,16,58,23.30
2016,08,26,16,59,23.20
2016,08,26,17,00,23.00
2016,08,26,17,01,22.90
2016,08,26,17,02,22.90
2016,08,26,17,03,22.90
2016,08,26,17,04,22.90
2016,08,26,17,05,22.90
2016,08,26,17,06,23.00
2016,08,26,17,07,23.10
2016,08,26,17,08,23.10
2016,08,26,17,09,23.00
2016,08,26,17,10,22.90
2016,08,26,17,11,22.90
2016,08,26,17,12,23.00
2016,08,26,17,13,23.10
2016,08,26,17,14,23.10
2016,08,26,17,15,23.20
2016,08,26,17,16,23.30
2016,08,26,17,17,23.50
2016,08,26,17,18,23.60
2016,08,26,17,19,23.80
2016,08,26,17,20,24.00
2016,08,26,17,21,24.10
2016,08,26,17,22,24.20
2016,08,26,17,23,24.40
2016,08,26,17,24,24.50
2016,08,26,17,25,24.70
2016,08,26,17,26,24.80
2016,08,26,17,27,24.90
2016,08,26,17,28,25.00
2016,08,26,17,29,25.00
2016,08,26,17,30,25.10
2016,08,26,17,31,25.10
2016,08,26,17,32,25.20
2016,08,26,17,33,25.20
2016,08,26,17,34,25.20
2016,08,26,17,35,25.20
2016,08,26,17,36,25.10
2016,08,26,17,37,25.00
2016,08,26,17,38,25.00
2016,08,26,17,39,25.00
2016,08,26,17,40,25.00
2016,08,26,17,41,25.00
2016,08,26,17,42,25.00
2016,08,26,17,43,24.90
2016,08,26,17,44,24.90
2016,08,26,17,45,24.90
2016,08,26,17,46,24.90
2016,08,26,17,47,24.90
2016,08,26,17,48,24.90
2016,08,26,17,49,24.90
2016,08,26,17,50,24.90
2016,08,26,17,51,24.90
2016,08,26,17,52,24.80
2016,08,26,17,53,24.70
2016,08,26,17,54,24.70
2016,08,26,17,55,24.60
2016,08,26,17,56,24.60
2016,08,26,17,57,24.50
2016,08,26,17,58,24.50
2016,08,26,17,59,24.50
2016,08,26,18,00,24.50
2016,08,26,18,01,24.50
2016,08,26,18,02,24.40
2016,08,26,18,03,24.40
2016,08,26,18,04,24.40
2016,08,26,18,05,24.30
2016,08,26,18,06,24.30
2016,08,26,18,07,24.20
2016,08,26,18,08,24.10
2016,08,26,18,09,24.00
2016,08,26,18,10,23.90
2016,08,26,18,11,23.80
2016,08,26,18,12,23.80
2016,08,26,18,13,23.60
2016,08,26,18,14,23.40
2016,08,26,18,15,23.30
2016,08,26,18,16,23.20
2016,08,26,18,17,23.00
2016,08,26,18,18,22.90
2016,08,26,18,19,22.90
2016,08,26,18,20,22.70
2016,08,26,18,21,22.60
2016,08,26,18,22,22.60
2016,08,26,18,23,22.50
2016,08,26,18,24,22.40
2016,08,26,18,25,22.30
2016,08,26,18,26,22.30
2016,08,26,18,27,22.20
2016,08,26,18,28,22.10
2016,08,26,18,29,22.00
2016,08,26,18,30,22.00
2016,08,26,18,31,21.90
2016,08,26,18,32,21.90
2016,08,26,18,33,21.90
2016,08,26,18,34,21.80
2016,08,26,18,35,21.60
2016,08,26,18,36,21.50
2016,08,26,18,37,21.40
2016,08,26,18,38,21.30
2016,08,26,18,39,21.20
2016,08,26,18,40,21.10
2016,08,26,18,41,21.00
2016,08,26,18,42,20.90
2016,08,26,18,43,20.80
2016,08,26,18,44,20.70
2016,08,26,18,45,20.50
2016,08,26,18,46,20.40
2016,08,26,18,47,20.30
2016,08,26,18,48,20.20
2016,08,26,18,49,20.20
2016,08,26,18,50,20.20
2016,08,26,18,51,20.20
2016,08,26,18,52,20.20
2016,08,26,18,53,20.20
2016,08,26,18,54,20.20
2016,08,26,18,55,20.20
2016,08,26,18,56,20.20
2016,08,26,18,57,20.20
2016,08,26,18,58,20.20
2016,08,26,18,59,20.20
2016,08,26,19,00,20.30
2016,08,26,19,01,20.40
2016,08,26,19,02,20.40
2016,08,26,19,03,20.50
2016,08,26,19,04,20.60
2016,08,26,19,05,20.70
2016,08,26,19,06,20.80
2016,08,26,19,07,20.80
2016,08,26,19,08,20.90
2016,08,26,19,09,20.90
2016,08,26,19,10,20.90
2016,08,26,19,11,21.00
2016,08,26,19,12,21.00
2016,08,26,19,13,21.10
2016,08,26,19,14,21.20
2016,08,26,19,15,21.30
2016,08,26,19,16,21.40
2016,08,26,19,17,21.60
2016,08,26,19,18,21.60
2016,08,26,19,19,21.80
2016,08,26,19,20,21.90
2016,08,26,19,21,21.90
2016,08,26,19,22,22.00
2016,08,26,19,23,22.10
2016,08,26,19,24,22.10
2016,08,26,19,25,22.20
2016,08,26,19,26,22.20
2016,08,26,19,27,22.30
2016,08,26,19,28,22.30
2016,08,26,19,29,22.40
2016,08,26,19,30,22.50
2016,08,26,19,31,22.50
2016,08,26,19,32,22.60
2016,08,26,19,33,22.70
2016,08,26,19,34,22.70
2016,08,26,19,35,22.80
2016,08,26,19,36,22.90
2016,08,26,19,37,22.90
2016,08,26,19,38,23.00
2016,08,26,19,39,23.10
2016,08,26,19,40,23.10
2016,08,26,19,41,23.10
2016,08,26,19,42,23.20
2016,08,26,19,43,23.20
2016,08,26,19,44,23.20
2016,08,26,19,45,23.20
2016,08,26,19,46,23.20
2016,08,26,19,47,23.20
2016,08,26,19,48,23.30
2016,08,26,19,49,23.30
2016,08,26,19,50,23.30
2016,08,26,19,51,23.30
2016,08,26,19,52,23.30
2016,08,26,19,53,23.40
2016,08,26,19,54,23.40
2016,08,26,19,55,23.40
2016,08,26,19,56,23.40
2016,08,26,19,57,23.40
2016,08,26,19,58,23.40
2016,08,26,19,59,23.40
2016,08,26,20,00,23.40
2016,08,26,20,01,23.40
2016,08,26,20,02,23.40
2016,08,26,20,03,23.40
2016,08,26,20,04,23.40
